Current weather by "City, St" or "zip code"  
 

Current Conditions: Cattaraugus County-Olean Airport, NY

Mostly Cloudy


36.0 F

Last Updated on Oct 31 2020, 2:55 pm EDT
Humidity: 70%
Wind Speed: S 8.1 mph
Barometer 30.33 in
Dewpoint: 26.6 F
Visibility: 10.00 mi
Precip: --
Heat Index: NA
Wind Chill: 30 F
Current conditions at:

Cattaraugus County-Olean Airport, NY (KOLE)

Lat: 42.24119 Lon: 78.37136

Local Radar Image active severe weather and emergency alerts image image weather storm and storm spotter reports image weather observation monitoring service image
Local
Radar
Active
Alerts
Storm Reports Obs
Monitoring

Sign-up For Email & Text Message Weather Alert Notification Services



Advertise Here

Observation History for Cattaraugus County-Olean Airport, NY


Time Wind
(mph)
Vis
(mi)
Weather Precip (in) Temperature (F) Relative
Humidity
Wind
Chill
(F)
Heat
Index
(F)
Pressure
Air Dwpt altimeter
(in)
sea level
(mb)
Rmks
2:55 pm EDT S 8.1 10.00 Mostly Cloudy -- 36.0 26.6 70% 30 NA 30.33 M
1:55 pm EDT S 10.4 G 16.1 10.00 Partly Cloudy -- 36.0 26.6 70% 28 NA 30.35 M
12:55 pm EDT SW 9.2 10.00 Partly Cloudy -- 34.0 24.8 70% 27 NA 30.38 M
11:55 am EDT S 8.1 10.00 Fair -- 34.0 23.0 65% 27 NA 30.41 M
11:35 am EDT S 4.6 10.00 Partly Cloudy -- 32.0 23.0 69% 27 NA 30.41 M
10:55 am EDT S 8.1 10.00 Fair -- 32.0 23.0 69% 25 NA 30.42 M
9:55 am EDT SW 4.6 10.00 Fair -- 30.0 23.0 75% 25 NA 30.42 M
8:55 am EDT S 4.6 10.00 Partly Cloudy -- 28.0 23.0 80% 23 NA 30.41 M
7:55 am EDT N 0.0 10.00 Overcast -- 27.0 23.0 86% NA NA 30.38 M
6:55 am EDT N 0.0 10.00 Overcast -- 28.0 23.0 80% NA NA 30.37 M
5:55 am EDT N 0.0 10.00 Overcast -- 28.0 23.0 80% NA NA 30.36 M
4:55 am EDT N 0.0 10.00 Overcast -- 28.0 23.0 80% NA NA 30.34 M
3:55 am EDT N 0.0 10.00 Overcast -- 28.0 21.2 74% NA NA 30.33 M
2:55 am EDT N 0.0 10.00 Overcast -- 30.0 21.2 69% NA NA 30.32 M
1:55 am EDT N 0.0 10.00 Overcast -- 30.0 23.0 75% NA NA 30.31 M
12:55 am EDT W 3.5 10.00 Overcast -- 30.0 24.8 80% NA NA 30.28 M
11:55 pm EDT NW 3.5 10.00 Overcast -- 30.0 24.8 80% NA NA 30.28 M
10:55 pm EDT NW 4.6 10.00 Overcast -- 30.0 28.4 93% 25 NA 30.25 M
9:55 pm EDT NW 3.5 10.00 Overcast -- 30.0 30.2 100% NA NA 30.23 M
8:55 pm EDT NW 3.5 10.00 Overcast -- 30.0 30.2 100% NA NA 30.20 M
7:55 pm EDT NW 3.5 10.00 Overcast -- 30.0 30.2 100% NA NA 30.18 M
6:55 pm EDT NW 3.5 10.00 Overcast -- 30.0 30.2 100% NA NA 30.16 M
5:55 pm EDT NW 3.5 7.00 Light Snow -- 32.0 32.0 100% NA NA 30.12 M
4:55 pm EDT N 0.0 7.00 Overcast -- 32.0 32.0 100% NA NA 30.10 M

Regional Weather Observation


Buffalo, Greater Buffalo International Airport, NY (KBUF)

Mostly Cloudy
44.0 F

Dunkirk, Chautauqua County / Dunkirk Airport, NY (KDKK)

Overcast
46.0 F

Jamestown, Chautauqua County/Jamestown Airport, NY (KJHW)

Mostly Cloudy
40.0 F

Wellsville, Wellsville Municipal Airport, NY (KELZ)

A Few Clouds
38.0 F

Dansville, Dansville Municipal Airport, NY (KDSV)

Fair
45.0 F

Bradford Regional Airport, PA (KBFD)

Mostly Cloudy
42.0 F